AB8Y-13 Weather Reports


time (UTC)temp
F
wind
direction
speed
knots
gust
knots
rain 1hr
in
rain 24hr
in
rain mn
in
humidity
%
barometer
mb
20260502151924 46 259 3.5 5.2 0.00 0.00 0.00 45 1018.2
20260502151420 46 319 1.7 2.6 0.00 0.00 0.00 41 1018.6
20260502150918 43 218 2.6 3.5 0.00 0.00 0.00 47 1018.3
20260502150414 43 275 1.7 2.6 0.00 0.00 0.00 48 1018.6
20260502130300 42 266 0.9 1.7 0.00 0.00 0.00 62 1018.7
20260502123746 41 211 1.7 3.5 0.00 0.00 0.00 65 1018.9
20260502123242 40 53 0.0 0.0 0.00 0.00 0.00 66 1018.9
20260502122739 40 35 3.5 3.5 0.00 0.00 0.00 69 1018.8
20260502122235 39 315 0.9 0.9 0.00 0.00 0.00 69 1018.7
20260502121734 39 50 1.7 2.6 0.00 0.00 0.00 69 1018.9
20260502121231 39 133 0.0 0.0 0.00 0.00 0.00 71 1018.9
20260502120727 38 116 0.0 0.0 0.00 0.00 0.00 73 1018.8
20260502120224 37 77 0.0 0.0 0.00 0.00 0.00 75 1018.7
20260502115722 37 74 0.0 0.0 0.00 0.00 0.00 76 1018.8
20260502115219 36 75 0.0 0.9 0.00 0.00 0.00 75 1018.8
20260502114714 36 74 0.0 0.0 0.00 0.00 0.00 81 1018.9
20260502114212 35 73 0.0 0.0 0.00 0.00 0.00 87 1018.6
20260502113709 34 73 0.0 0.0 0.00 0.00 0.00 95 1018.6
20260502113207 33 73 0.0 0.0 0.00 0.00 0.00 95 1018.6
20260502112705 31 73 0.0 0.0 0.00 0.00 0.00 95 1018.6
20260502112202 31 73 0.0 0.0 0.00 0.00 0.00 95 1018.7
20260502111659 30 73 0.0 0.0 0.00 0.00 0.00 95 1018.6
20260502111157 30 73 0.0 0.0 0.00 0.00 0.00 95 1018.6
20260502110654 29 73 0.0 0.0 0.00 0.00 0.00 94 1018.7
20260502110151 29 73 0.0 0.0 0.00 0.00 0.00 94 1018.4
20260502105649 29 73 0.0 0.0 0.00 0.00 0.00 94 1018.4
20260502105146 29 73 0.0 0.0 0.00 0.00 0.00 94 1018.5
20260502104643 29 74 0.0 0.0 0.00 0.00 0.00 94 1018.4
20260502104140 29 74 0.0 0.0 0.00 0.00 0.00 94 1018.4
20260502103638 29 74 0.0 0.0 0.00 0.00 0.00 94 1018.3
20260502103136 30 74 0.0 0.0 0.00 0.00 0.00 94 1018.3
20260502102632 30 74 0.0 0.0 0.00 0.00 0.00 94 1018.4
20260502102129 30 74 0.0 0.0 0.00 0.00 0.00 94 1018.0
20260502101627 30 74 0.0 0.0 0.00 0.00 0.00 94 1018.1
20260502101125 30 74 0.0 0.0 0.00 0.00 0.00 94 1018.3
20260502100624 30 74 0.0 0.0 0.00 0.00 0.00 94 1018.2
20260502100121 31 74 0.0 0.0 0.00 0.00 0.00 94 1018.1
20260502091055 32 74 0.0 0.0 0.00 0.00 0.00 93 1018.0
20260502090552 32 74 0.0 0.0 0.00 0.00 0.00 93 1017.8
20260502071446 35 74 0.0 0.0 0.00 0.00 0.00 88 1017.5
20260502070944 35 74 0.0 0.0 0.00 0.00 0.00 88 1017.6
20260502070442 36 73 0.0 0.0 0.00 0.00 0.00 87 1017.5
20260502065940 36 73 0.0 0.0 0.00 0.00 0.00 87 1017.3
20260502065439 36 74 0.0 0.0 0.00 0.00 0.00 86 1017.6
20260502064936 36 74 0.0 0.0 0.00 0.00 0.00 85 1017.7
20260502064434 36 74 0.0 0.0 0.00 0.00 0.00 85 1017.7
20260502063931 36 74 0.0 0.0 0.00 0.00 0.00 84 1017.6
20260502063429 36 74 0.0 0.0 0.00 0.00 0.00 84 1017.6
20260502062926 37 73 0.0 0.0 0.00 0.00 0.00 84 1017.5
20260502062423 37 74 0.0 0.0 0.00 0.00 0.00 84 1017.7
20260502061922 37 74 0.0 0.0 0.00 0.00 0.00 84 1017.8
20260502061420 37 73 0.0 0.0 0.00 0.00 0.00 83 1017.8
20260502060915 37 73 0.0 0.0 0.00 0.00 0.00 83 1017.8
20260502060410 37 73 0.0 0.0 0.00 0.00 0.00 82 1017.7
20260502055908 37 73 0.0 0.0 0.00 0.00 0.00 81 1017.8
20260502055405 37 73 0.0 0.0 0.00 0.00 0.00 81 1018.1
20260502054900 37 74 0.0 0.0 0.00 0.00 0.00 80 1017.9
20260502054357 37 74 0.0 0.0 0.00 0.00 0.00 81 1017.7
20260502053854 37 74 0.0 0.0 0.00 0.00 0.00 80 1017.9
20260502053351 37 74 0.0 0.0 0.00 0.00 0.00 81 1017.7
20260502052849 37 74 0.0 0.0 0.00 0.00 0.00 79 1017.9
20260502052347 37 74 0.0 0.0 0.00 0.00 0.00 80 1017.8
20260502051844 37 73 0.0 0.0 0.00 0.00 0.00 80 1017.8
20260502051343 38 73 0.0 0.0 0.00 0.00 0.00 78 1017.8
20260502050839 38 73 0.0 0.0 0.00 0.00 0.00 78 1017.8
20260502050335 38 73 0.0 0.0 0.00 0.00 0.00 77 1017.7
20260502045832 38 73 0.0 0.0 0.00 0.00 0.00 77 1017.7
20260502045329 38 74 0.9 0.9 0.00 0.00 0.00 77 1017.7
20260502044826 38 73 0.0 0.0 0.00 0.00 0.00 76 1017.6
20260502044322 39 55 0.0 0.0 0.00 0.00 0.00 75 1017.8
20260502043820 39 56 0.9 0.9 0.00 0.00 0.00 75 1017.6
20260502043317 39 54 0.0 0.0 0.00 0.00 0.00 74 1017.7
20260502042817 39 40 0.0 0.0 0.00 0.00 0.00 73 1017.5
20260502042314 39 39 0.9 0.9 0.00 0.00 0.00 73 1017.6
20260502041812 39 70 0.9 0.9 0.00 0.00 0.00 72 1017.6
20260502041309 39 73 0.0 0.0 0.00 0.00 0.00 72 1017.3
20260502040806 40 75 0.0 0.9 0.00 0.00 0.00 71 1017.2
20260502040303 40 76 1.7 1.7 0.00 0.00 0.00 70 1017.3
20260502035759 40 70 0.0 0.0 0.00 0.00 0.00 69 1017.1
20260502035255 40 71 0.9 0.9 0.00 0.00 0.00 68 1017.1
20260502034752 40 66 1.7 1.7 0.00 0.00 0.00 67 1017.2
20260502034251 40 64 0.9 0.9 0.00 0.00 0.00 66 1017.5
20260502033749 40 62 0.9 0.9 0.00 0.00 0.00 64 1017.3
20260502033246 40 13 0.9 0.9 0.00 0.00 0.00 63 1017.3
20260502032743 40 62 0.9 0.9 0.00 0.00 0.00 57 1017.1
20260502032239 40 62 0.0 0.0 0.00 0.00 0.00 57 1017.2
20260502031737 40 65 0.0 0.0 0.00 0.00 0.00 58 1017.0
20260502031235 40 65 0.0 0.0 0.00 0.00 0.00 55 1017.2
20260502030733 41 68 0.0 0.0 0.00 0.00 0.00 56 1017.1
20260502030231 41 127 0.0 0.0 0.00 0.00 0.00 55 1017.0
20260502025728 41 137 0.9 0.9 0.00 0.00 0.00 59 1017.0
20260502025226 41 138 0.0 0.0 0.00 0.00 0.00 59 1017.0
20260502024723 41 107 0.9 0.9 0.00 0.00 0.00 56 1016.9
20260502024221 41 74 0.9 1.7 0.00 0.00 0.00 57 1017.1
20260502023719 41 75 0.0 0.0 0.00 0.00 0.00 54 1017.0
20260502023216 41 47 0.0 0.0 0.00 0.00 0.00 55 1016.9
20260502022714 41 46 0.0 0.0 0.00 0.00 0.00 56 1016.9
20260502022210 41 40 0.9 0.9 0.00 0.00 0.00 53 1016.8
20260502021707 41 65 0.9 0.9 0.00 0.00 0.00 54 1016.7
20260502021204 41 28 0.0 0.0 0.00 0.00 0.00 55 1016.8
20260502020701 41 54 0.9 0.9 0.00 0.00 0.00 56 1016.7
20260502020158 41 153 2.6 2.6 0.00 0.00 0.00 52 1016.8
20260502015656 41 91 0.9 0.9 0.00 0.00 0.00 54 1016.8
20260502015152 41 76 0.9 0.9 0.00 0.00 0.00 54 1016.6
20260502014650 41 92 0.0 0.0 0.00 0.00 0.00 58 1016.7
20260502014146 41 75 0.0 0.0 0.00 0.00 0.00 56 1016.5
20260502013642 41 70 0.0 0.0 0.00 0.00 0.00 58 1016.6
20260502013138 40 67 0.9 0.9 0.00 0.00 0.00 65 1016.9
20260502012636 41 57 0.0 0.0 0.00 0.00 0.00 61 1016.8
20260502012134 41 57 0.0 0.0 0.00 0.00 0.00 63 1016.6
20260502011630 41 57 0.0 0.0 0.00 0.00 0.00 57 1016.6
20260502011126 41 57 0.0 0.0 0.00 0.00 0.00 57 1016.5
20260502010624 41 55 0.9 0.9 0.00 0.00 0.00 57 1016.6
20260502010120 42 55 0.0 0.0 0.00 0.00 0.00 57 1016.4
20260502005618 42 52 0.0 0.9 0.00 0.00 0.00 56 1016.5
20260502005115 42 30 1.7 1.7 0.00 0.00 0.00 54 1016.4
20260502004610 42 62 0.9 0.9 0.00 0.00 0.00 56 1016.3
20260502004108 42 73 3.5 3.5 0.00 0.00 0.00 54 1016.2
20260502003606 43 17 1.7 1.7 0.00 0.00 0.00 58 1016.1
20260502003102 43 55 0.9 0.9 0.00 0.00 0.00 56 1016.1
20260502002558 43 51 0.0 0.0 0.00 0.00 0.00 57 1016.0
20260502002056 43 55 0.0 0.0 0.00 0.00 0.00 56 1016.0
20260502001554 43 55 0.9 0.9 0.00 0.00 0.00 54 1015.9
20260502001050 44 62 0.9 1.7 0.00 0.00 0.00 53 1015.8
20260502000549 44 60 0.9 0.9 0.00 0.00 0.00 51 1016.0
20260502000046 44 55 0.0 0.0 0.00 0.00 0.00 55 1015.6
20260501235541 44 43 0.0 0.0 0.00 0.00 0.00 51 1015.6
20260501235038 44 49 0.9 1.7 0.00 0.00 0.00 51 1015.7
20260501234533 44 75 1.7 2.6 0.00 0.00 0.00 48 1015.6
20260501234032 45 92 0.0 0.0 0.00 0.00 0.00 50 1015.6
20260501233529 45 175 0.0 0.0 0.00 0.00 0.00 51 1015.5
20260501233026 45 175 0.0 0.0 0.00 0.00 0.00 50 1015.7
20260501232522 45 202 0.9 0.9 0.00 0.00 0.00 49 1015.5
20260501232020 45 24 0.0 0.9 0.00 0.00 0.00 49 1015.6
20260501231517 45 261 1.7 1.7 0.00 0.00 0.00 48 1015.4
20260501231015 46 209 0.9 1.7 0.00 0.00 0.00 50 1015.4
20260501230514 46 83 0.9 0.9 0.00 0.00 0.00 48 1015.6
20260501230011 46 75 0.0 0.9 0.00 0.00 0.00 54 1015.2
20260501225510 46 74 0.0 0.0 0.00 0.00 0.00 55 1015.4
20260501225004 46 72 0.9 0.9 0.00 0.00 0.00 50 1015.3
20260501224503 46 71 0.0 0.0 0.00 0.00 0.00 54 1015.3
20260501223959 46 72 0.0 0.0 0.00 0.00 0.00 51 1015.4
20260501223455 45 72 0.0 0.0 0.00 0.00 0.00 53 1015.4
20260501222951 45 71 0.9 1.7 0.00 0.00 0.00 54 1015.6
20260501222448 45 80 0.0 0.0 0.00 0.00 0.00 55 1015.3
20260501221944 45 78 0.0 0.0 0.00 0.00 0.00 57 1015.4
20260501221442 45 78 0.0 0.0 0.00 0.00 0.00 56 1015.4
20260501220940 45 77 0.9 0.0 0.00 0.00 0.00 55 1015.3
20260501220437 45 73 0.0 0.9 0.00 0.00 0.00 54 1015.4
20260501215932 45 58 0.9 0.9 0.00 0.00 0.00 55 1015.3
20260501215430 45 67 0.9 0.9 0.00 0.00 0.00 56 1015.2
20260501214925 46 61 0.0 0.9 0.00 0.00 0.00 54 1015.3
20260501214421 46 63 0.0 0.0 0.00 0.00 0.00 55 1015.2
20260501213916 46 43 1.7 1.7 0.00 0.00 0.00 52 1015.4
20260501213414 46 116 0.9 0.9 0.00 0.00 0.00 56 1015.4
20260501212909 46 210 0.9 0.9 0.00 0.00 0.00 55 1015.2
20260501212406 46 208 0.0 0.9 0.00 0.00 0.00 51 1015.3
20260501211903 46 64 1.7 1.7 0.00 0.00 0.00 52 1015.2
20260501211400 46 142 0.0 0.0 0.00 0.00 0.00 54 1015.1
20260501210858 46 133 0.0 0.0 0.00 0.00 0.00 52 1015.0
20260501210354 45 161 1.7 2.6 0.00 0.00 0.00 53 1015.2
20260501205851 45 276 1.7 1.7 0.00 0.00 0.00 57 1015.1
20260501205348 45 183 0.9 0.9 0.00 0.00 0.00 56 1015.2
20260501204845 46 176 0.9 0.9 0.00 0.00 0.00 54 1015.0
20260501204341 46 65 0.9 1.7 0.00 0.00 0.00 55 1015.1
20260501203837 46 78 0.9 0.9 0.00 0.00 0.00 56 1015.1
20260501203335 46 1 0.9 0.9 0.00 0.00 0.00 51 1014.9
20260501202831 46 165 0.9 0.9 0.00 0.00 0.00 53 1015.1
20260501202328 47 252 1.7 1.7 0.00 0.00 0.00 51 1015.1
20260501201825 47 199 1.7 1.7 0.00 0.00 0.00 51 1015.0
20260501201322 47 166 3.5 3.5 0.00 0.00 0.00 50 1015.1
20260501200819 46 196 2.6 2.6 0.00 0.00 0.00 50 1014.9
20260501200316 46 179 0.0 0.0 0.00 0.00 0.00 51 1014.7
20260501195814 46 216 0.0 0.0 0.00 0.00 0.00 52 1014.9
20260501195309 46 51 0.0 0.9 0.00 0.00 0.00 50 1015.0
20260501194805 46 54 0.9 0.9 0.00 0.00 0.00 55 1015.1
20260501194301 46 51 0.9 1.7 0.00 0.00 0.00 54 1015.0
20260501193758 46 133 0.9 0.9 0.00 0.00 0.00 53 1015.1
20260501193257 46 214 0.9 0.9 0.00 0.00 0.00 51 1015.0
20260501192753 46 60 0.9 0.9 0.00 0.00 0.00 53 1014.8
20260501192250 45 32 0.9 0.9 0.00 0.00 0.00 54 1014.8
20260501191748 46 40 1.7 1.7 0.00 0.00 0.00 51 1015.0
20260501191245 46 49 0.0 0.0 0.00 0.00 0.00 52 1014.9
20260501190741 47 60 0.9 0.9 0.00 0.00 0.00 50 1014.7
20260501190237 48 51 2.6 2.6 0.00 0.00 0.00 45 1014.7
20260501185733 48 257 1.7 2.6 0.00 0.00 0.00 46 1014.4
20260501185229 48 293 1.7 1.7 0.00 0.00 0.00 46 1014.6
20260501184725 48 303 1.7 2.6 0.00 0.00 0.00 46 1014.8
20260501184221 47 53 1.7 2.6 0.00 0.00 0.00 48 1014.5
20260501183717 47 69 1.7 1.7 0.00 0.00 0.00 46 1014.6
20260501183214 48 223 4.3 5.2 0.00 0.00 0.00 46 1014.7
20260501182710 48 59 2.6 2.6 0.00 0.00 0.00 47 1014.6
20260501182207 48 99 0.9 0.9 0.00 0.00 0.00 49 1014.5
20260501181704 48 55 0.9 0.9 0.00 0.00 0.00 49 1014.5
20260501181201 46 65 1.7 2.6 0.00 0.00 0.00 50 1014.6
20260501180659 46 64 1.7 2.6 0.00 0.00 0.00 51 1014.7
20260501180155 47 76 1.7 1.7 0.00 0.00 0.00 52 1014.5
20260501175651 48 90 0.9 0.9 0.00 0.00 0.00 56 1014.5
20260501175149 48 13 2.6 2.6 0.00 0.00 0.00 51 1014.4
20260501174645 48 308 0.9 0.9 0.00 0.00 0.00 50 1014.5
20260501174143 48 43 0.0 0.0 0.00 0.00 0.00 48 1014.6
20260501173640 47 8 1.7 1.7 0.00 0.00 0.00 52 1014.4
20260501173137 46 351 1.7 3.5 0.00 0.00 0.00 55 1014.6
20260501172633 47 55 2.6 5.2 0.00 0.00 0.00 53 1014.8
20260501172128 49 64 3.5 5.2 0.00 0.00 0.00 50 1014.6
20260501171624 48 352 1.7 1.7 0.00 0.00 0.00 55 1014.6
20260501171121 47 270 1.7 1.7 0.00 0.00 0.00 52 1014.6
20260501170619 47 34 1.7 1.7 0.00 0.00 0.00 55 1014.7
20260501170115 47 61 0.9 2.6 0.00 0.00 0.00 52 1014.6
20260501165612 48 210 0.9 0.9 0.00 0.00 0.00 50 1014.8
20260501165110 48 58 3.5 3.5 0.00 0.00 0.00 53 1014.8
20260501164608 49 68 1.7 1.7 0.00 0.00 0.00 51 1014.8
20260501164104 48 68 1.7 2.6 0.00 0.00 0.00 51 1014.8
20260501163601 47 307 0.9 0.9 0.00 0.00 0.00 54 1015.0
20260501163058 48 76 2.6 3.5 0.00 0.00 0.00 53 1014.8
20260501162554 49 52 3.5 5.2 0.00 0.00 0.00 51 1014.7
20260501162051 48 51 5.2 7.8 0.00 0.00 0.00 52 1014.9
20260501161548 47 84 0.9 0.9 0.00 0.00 0.00 54 1014.9
20260501161045 47 117 0.0 0.9 0.00 0.00 0.00 54 1014.8
20260501160542 47 77 3.5 6.1 0.00 0.00 0.00 52 1014.8